Regional Weather Roundup
Issued by NWS

Home | Current Version | Previous Version | Text Only | Print | Product List | Glossary Off
Versions: 1 2 3 4 5 6 7 8 9 10 11 12 13 14 15 16 17 18 19 20 21 22 23 24 25 26 27 28 29 30 31 32 33 34 35 36 37 38 39 40 41 42 43 44 45 46 47 48 49 50

076
ASUS45 KCYS 191710
RWRWY

WYOMING REGIONAL WEATHER ROUNDUP
NATIONAL WEATHER SERVICE CHEYENNE WY
1100 AM MDT TUE SEP 19 2017

NOTE:  "FAIR" INDICATES FEW OR NO CLOUDS BELOW 12,000 FEET
WITH NO SIGNIFICANT WEATHER AND/OR OBSTRUCTIONS TO VISIBILITY.

WYZ001-191800-
YELLOWSTONE NATIONAL PARK

CITY           SKY/WX    TMP DP  RH WIND       PRES   REMARKS
LK YELLOWSTONE   N/A     31  29  92 W8        29.80R WCI  23
W YELLOWSTONE  NOT AVBL

$$
WYZ002>013-054>058-071-098>099-191800-
NORTHERN WYOMING

CITY           SKY/WX    TMP DP  RH WIND       PRES   REMARKS
JACKSON        CLOUDY    42  34  73 S15G22    29.83R
CODY           PTSUNNY   44  38  79 N12       29.70R
GREYBULL       CLOUDY    50  45  83 NW10      29.64R
WORLAND        PTSUNNY   49  46  90 E5        29.66S
SHERIDAN       LGT RAIN  47  42  83 NW12      29.67S
BUFFALO        LGT RAIN  44  41  89 N21G28    29.65R
GILLETTE       CLOUDY    57  46  66 W14       29.62R
HULETT         PTSUNNY   64  41  42 W8G16     29.59S
NEWCASTLE      FAIR      61  41  48 SE10G17   29.62F

$$
WYZ014>020-022>026-101>103-191800-
CENTRAL WYOMING

CITY           SKY/WX    TMP DP  RH WIND       PRES   REMARKS
BIG PINEY      PTSUNNY   39  33  79 W12       29.87S WCI  32
PINEDALE       PTSUNNY   37  32  81 W12       29.87R WCI  30
DUBOIS         PTSUNNY   37  30  75 NW16      29.76S WCI  28
LANDER           N/A    N/A N/A N/A MISG      29.74S
RIVERTON       PTSUNNY   48  38  68 W16       29.74R
CASPER         CLOUDY    54  39  57 W21G32    29.71R
DOUGLAS        CLOUDY    63  41  44 NW8       29.66F

$$
WYZ021-027>030-104>119-191800-
SOUTHERN WYOMING

CITY           SKY/WX    TMP DP  RH WIND       PRES   REMARKS
EVANSTON       FLURRIES  35  35 100 CALM      29.95S
KEMMERER       LGT SNOW  32  32 100 W24G30    29.91R WCI  19
FORT BRIDGER   SNOW      34  34 100 W6        29.98R VSB 1/4 WCI  29
ROCK SPRINGS   RAIN      37  35  92 W15G25    29.91R FOG     WCI  28
DIXON          CLOUDY    68  22  17 SW29G39   29.81S
RAWLINS        LGT RAIN  52  38  58 W21       29.79R
SARATOGA       FAIR      66  23  19 SW33G48   29.77S
LARAMIE        FAIR      68  19  15 SW35G43   29.76F
CHEYENNE       FAIR      73  16  11 SW14      29.73F
TORRINGTON     FAIR      68  47  46 CALM      29.60F
PINE BLUFFS    FAIR      63  39  42 SW9       29.69F

$$




USA.gov is the U.S. government's official web portal to all federal, state and local government web resources and services.